Location: Newark
(13.8117°N, 3.6025°W)
Time: 22:08:09
(UTC+00:00)

Explorer 11/Cluster Stage 4 - All Passes

Search period start: 25 August 2019 00:00
Search period end: 04 September 2019 00:00
Orbit: 467 x 1260 km, 28.8° (Epoch: 24 August)

Date Brightness Start Highest point End Pass type
(mag) Time Alt. Az. Time Alt. Az. Time Alt. Az.
25 Aug - 05:33:39 10° S 05:37:51 20° SE 05:42:40 10° E visible
25 Aug - 07:19:54 10° SW 07:26:24 77° SSE 07:34:15 10° ENE daylight
25 Aug - 09:09:02 10° W 09:16:03 45° NNW 09:23:49 10° NE daylight
25 Aug - 10:59:52 10° WNW 11:06:34 28° N 11:13:24 10° NE daylight
25 Aug - 12:50:32 10° NW 12:57:26 29° N 13:03:54 10° ENE daylight
25 Aug - 14:40:12 10° NW 14:47:49 48° NNE 14:54:19 10° E daylight
25 Aug - 16:29:56 10° WNW 16:37:08 64° SSW 16:42:55 10° SE daylight
25 Aug - 18:22:28 10° WSW 18:25:23 14° SW 18:28:02 10° S daylight
26 Aug - 05:22:44 10° SSW 05:27:07 23° SE 05:32:15 10° E visible
26 Aug - 07:09:21 10° WSW 07:15:39 88° SSE 07:23:22 10° ENE daylight
26 Aug - 08:58:41 10° W 09:05:23 40° NNW 09:12:55 10° NE daylight
26 Aug - 10:49:25 10° WNW 10:55:59 27° N 11:02:44 10° NE daylight
26 Aug - 12:39:46 10° NW 12:46:50 30° N 12:53:32 10° ENE daylight
26 Aug - 14:29:15 10° NW 14:37:08 55° NNE 14:43:55 10° E daylight
26 Aug - 16:19:09 10° WNW 16:26:24 54° SSW 16:32:19 10° SE daylight
26 Aug - 18:12:42 10° WSW 18:14:41 12° SW 18:16:33 10° SSW daylight
27 Aug - 05:11:54 10° SSW 05:16:23 27° SE 05:21:46 10° E visible
27 Aug - 06:58:53 10° WSW 07:04:57 80° NNW 07:12:29 10° ENE daylight
27 Aug - 08:48:21 10° W 08:54:44 36° NNW 09:02:00 10° NE daylight
27 Aug - 10:38:58 10° NW 10:45:24 27° N 10:52:06 10° NE daylight
27 Aug - 12:28:59 10° NW 12:36:12 32° NNE 12:43:09 10° ENE daylight
27 Aug - 14:18:21 10° WNW 14:26:26 62° NNE 14:33:30 10° ESE daylight
27 Aug - 16:08:24 10° WNW 16:15:38 46° SSW 16:21:40 10° SE daylight
28 Aug - 05:01:10 10° SSW 05:05:41 32° SE 05:11:12 10° E visible
28 Aug - 06:48:28 10° WSW 06:54:18 69° NNW 07:01:34 10° ENE daylight
28 Aug - 08:38:04 10° WNW 08:44:09 32° NNW 08:51:06 10° NE daylight
28 Aug - 10:28:30 10° NW 10:34:48 26° N 10:41:27 10° NE daylight
28 Aug - 12:18:13 10° NW 12:25:33 35° NNE 12:32:43 10° ENE daylight
28 Aug - 14:07:27 10° WNW 14:15:42 71° NNE 14:22:59 10° ESE daylight
28 Aug - 15:57:42 10° W 16:04:51 40° SSW 16:10:55 10° SE daylight
29 Aug - 04:50:29 10° SW 04:55:00 37° SSE 05:00:35 10° E visible
29 Aug - 06:38:06 10° WSW 06:43:40 58° NNW 06:50:39 10° NE daylight
29 Aug - 08:27:49 10° WNW 08:33:35 29° N 08:40:11 10° NE daylight
29 Aug - 10:18:02 10° NW 10:24:14 26° N 10:30:51 10° ENE daylight
29 Aug - 12:07:25 10° NW 12:14:53 38° NNE 12:22:16 10° E daylight
29 Aug - 13:56:36 10° WNW 14:04:55 80° NNE 14:12:26 10° ESE daylight
29 Aug - 15:47:03 10° W 15:54:02 34° SW 16:00:07 10° SSE daylight
30 Aug - 04:39:53 10° SW 04:44:21 45° SSE 04:49:55 10° ENE visible
30 Aug - 06:27:48 10° W 06:33:05 49° NNW 06:39:42 10° NE daylight
30 Aug - 08:17:37 10° WNW 08:23:02 27° N 08:29:18 10° NE daylight
30 Aug - 10:07:34 10° NW 10:13:39 26° N 10:20:14 10° ENE daylight
30 Aug - 11:56:40 10° NW 12:04:11 41° NNE 12:11:47 10° E daylight
30 Aug - 13:45:46 10° WNW 13:54:07 90° SSW 14:01:48 10° ESE daylight
30 Aug - 15:36:29 10° W 15:43:13 30° SW 15:49:13 10° SSE daylight
31 Aug - 04:29:21 10° SW 04:33:44 55° SSE 04:39:13 10° ENE visible
31 Aug - 06:17:34 10° W 06:22:33 41° NNW 06:28:45 10° NE daylight
31 Aug - 08:07:25 10° WNW 08:12:31 25° N 08:18:25 10° NE daylight
31 Aug - 09:57:04 10° NW 10:03:04 26° N 10:09:39 10° ENE daylight
31 Aug - 11:45:54 10° NW 11:53:28 45° NNE 12:01:15 10° E daylight
31 Aug - 13:34:58 10° WNW 13:43:17 80° SSW 13:51:07 10° ESE daylight
31 Aug - 15:26:00 10° W 15:32:24 26° SW 15:38:14 10° SSE daylight
01 Sep - 02:35:09 10° SE 02:35:17 10° SE 02:35:24 10° SE night (unlit)
01 Sep - 04:18:52 10° SW 04:23:09 69° SSE 04:28:31 10° ENE visible
01 Sep - 06:07:23 10° W 06:12:03 35° NNW 06:17:48 10° NE daylight
01 Sep - 07:57:15 10° NW 08:02:02 23° N 08:07:33 10° NE daylight
01 Sep - 09:46:33 10° NW 09:52:29 27° N 09:59:04 10° ENE daylight
01 Sep - 11:35:09 10° NW 11:42:43 50° NNE 11:50:41 10° E daylight
01 Sep - 13:24:14 10° WNW 13:32:26 70° SSW 13:40:21 10° SE daylight
01 Sep - 15:15:38 10° W 15:21:35 22° SW 15:27:08 10° SSE daylight
02 Sep - 02:22:56 10° S 02:24:41 13° SE 02:26:33 10° ESE night (unlit)
02 Sep - 04:08:27 10° WSW 04:12:36 86° SSE 04:17:46 10° ENE visible
02 Sep - 05:57:15 10° WNW 06:01:35 29° NNW 06:06:50 10° NE daylight
02 Sep - 07:47:03 10° NW 07:51:33 21° N 07:56:43 10° NE daylight
02 Sep - 09:36:02 10° NW 09:41:54 28° NNE 09:48:29 10° ENE daylight
02 Sep - 11:24:26 10° NW 11:31:58 55° NNE 11:40:03 10° E daylight
02 Sep - 13:13:33 10° WNW 13:21:35 61° SSW 13:29:31 10° SE daylight
02 Sep - 15:05:24 10° WSW 15:10:47 19° SW 15:15:54 10° S daylight
03 Sep - 02:11:45 10° S 02:14:07 16° SE 02:16:39 10° ESE night (unlit)
03 Sep - 03:58:04 10° WSW 04:02:06 75° NNW 04:07:01 10° ENE visible
03 Sep - 05:47:10 10° WNW 05:51:08 25° NNW 05:55:53 10° NE daylight
03 Sep - 07:36:53 10° NW 07:41:06 20° N 07:45:55 10° NE daylight
03 Sep - 09:25:30 10° NW 09:31:17 29° NNE 09:37:54 10° ENE daylight
03 Sep - 11:13:44 10° NW 11:21:12 62° NNE 11:29:23 10° ESE daylight
03 Sep - 13:02:55 10° WNW 13:10:44 53° SSW 13:18:37 10° SE daylight
03 Sep - 14:55:21 10° WSW 15:00:01 16° SSW 15:04:31 10° S daylight
